Change the Weather History Date:

Friday, August 24, 2012

  Actual Average Record
Temperature  
Mean Temperature 84 °F 83 °F  
Max Temperature 93 °F 91 °F 97 °F (1989)
Min Temperature 75 °F 76 °F 69 °F (1957)
Degree Days  
Heating Degree Days 0 0  
Month to date heating degree days 0 0  
Since 1 June heating degree days 0 0  
Since 1 July heating degree days 0 0  
Cooling Degree Days 19 18  
Month to date cooling degree days 454 432  
Year to date cooling degree days 2773 2526  
Since 1 June cooling degree days 1506 1498  
Growing Degree Days 33 (Base 50)    
Moisture  
Dew Point 71 °F    
Average Humidity 69    
Maximum Humidity 88    
Minimum Humidity 49    
Precipitation  
Precipitation T in 0.27 in 3.08 in (1978)
Month to date precipitation 7.88 6.59  
Year to date precipitation 25.99 34.53  
Snow  
Snow 0.00 in - - ()
Month to date snowfall 0.0  
Since 1 June snowfall 0.0  
Since 1 July snowfall 0.0  
Snow Depth 0.00 in    
Sea Level Pressure  
Sea Level Pressure 29.98 in    
Wind  
Wind Speed 10 mph (ENE)    
Max Wind Speed 28 mph    
Max Gust Speed 35 mph    
Visibility 9 miles    
Events      
T = Trace of Precipitation, MM = Missing Value Source: NWS Daily Summary

Daily Weather History Graph

Daily Weather History Graph

Search for Another Location

Airport or City:

Trip Planner

Search our weather history database for the weather conditions in past years. The results will help you decide how hot, cold, wet, or windy it might be!

Date:

Astronomy

Aug. 24, 2012 Rise Set
Actual Time 7:03 AM EDT 7:54 PM EDT
Civil Twilight 6:40 AM EDT 8:17 PM EDT
Nautical Twilight 6:12 AM EDT 8:45 PM EDT
Astronomical Twilight 5:43 AM EDT 9:14 PM EDT
Moon 2:06 PM EDT (8/24) 12:09 AM EDT (8/24)
Length of Visible Light 13h 37m
Length of Day
12h 50m
Waxing Crescent, 51% of the Moon is Illuminated
Aug 24
Waxing Crescent
Aug 31
Full
Sep 8
Last Quarter
Sep 15
New
Sep 22
First Quarter

Hourly Weather History & Observations

Time (EDT) Temp. Heat Index Dew Point Humidity Pressure Visibility Wind Dir Wind Speed Gust Speed Precip Events Conditions
12:53 AM 75.0 °F - 68.0 °F 79% 30.03 in 10.0 mi NE 3.5 mph - N/A   Clear
1:53 AM 75.9 °F - 70.0 °F 82% 30.01 in 10.0 mi NE 4.6 mph - N/A   Clear
2:53 AM 75.9 °F - 71.1 °F 85% 30.00 in 10.0 mi NE 5.8 mph - N/A   Clear
3:53 AM 75.0 °F - 71.1 °F 87% 29.98 in 10.0 mi NE 3.5 mph - N/A   Clear
4:53 AM 75.9 °F - 71.1 °F 85% 29.98 in 10.0 mi NNE 4.6 mph - N/A   Clear
5:53 AM 75.0 °F - 72.0 °F 90% 29.97 in 9.0 mi ENE 4.6 mph - N/A   Clear
6:53 AM 75.0 °F - 72.0 °F 90% 29.99 in 9.0 mi NE 4.6 mph - N/A   Clear
7:53 AM 77.0 °F - 73.0 °F 88% 30.01 in 7.0 mi NNE 4.6 mph - N/A   Clear
8:53 AM 80.1 °F 85.1 °F 75.0 °F 85% 30.02 in 7.0 mi NE 6.9 mph - N/A   Clear
9:53 AM 82.9 °F 90.2 °F 75.0 °F 77% 30.03 in 7.0 mi ENE 9.2 mph - N/A   Clear
10:53 AM 86.0 °F 93.0 °F 73.0 °F 65% 30.03 in 8.0 mi East 13.8 mph - N/A   Partly Cloudy
11:53 AM 89.1 °F 96.0 °F 72.0 °F 57% 30.01 in 8.0 mi ENE 11.5 mph - N/A   Partly Cloudy
12:53 PM 91.0 °F 98.2 °F 72.0 °F 53% 29.99 in 9.0 mi NNE 12.7 mph - N/A   Clear
1:53 PM 91.9 °F 99.5 °F 72.0 °F 52% 29.97 in 9.0 mi ENE 13.8 mph - N/A   Scattered Clouds
2:53 PM 91.9 °F 97.4 °F 70.0 °F 48% 29.94 in 9.0 mi NE 15.0 mph 21.9 mph N/A   Partly Cloudy
3:53 PM 86.0 °F 92.2 °F 72.0 °F 63% 29.94 in 8.0 mi East 19.6 mph 27.6 mph N/A   Scattered Clouds
4:53 PM 88.0 °F 91.4 °F 68.0 °F 51% 29.93 in 10.0 mi East 10.4 mph - N/A   Clear
5:53 PM 84.9 °F 88.8 °F 69.1 °F 59% 29.93 in 10.0 mi East 12.7 mph - N/A   Clear
6:53 PM 84.9 °F 89.4 °F 70.0 °F 61% 29.92 in 10.0 mi ENE 15.0 mph 19.6 mph N/A   Clear
7:53 PM 82.9 °F 87.0 °F 70.0 °F 65% 29.93 in 10.0 mi ENE 9.2 mph - N/A   Clear
8:53 PM 82.0 °F 87.4 °F 73.0 °F 74% 29.94 in 10.0 mi NE 9.2 mph - N/A   Clear
9:53 PM 81.0 °F 84.4 °F 70.0 °F 69% 29.97 in 10.0 mi East 10.4 mph - N/A   Clear
10:53 PM 79.0 °F - 70.0 °F 74% 29.99 in 10.0 mi East 10.4 mph - N/A   Clear
11:53 PM 78.1 °F - 69.1 °F 74% 29.97 in 10.0 mi East 10.4 mph - N/A   Clear